Location: Monteux
(44.0348°N, 4.9972°E)
Time: 05:57:53
(UTC+00:00)

Cosmos 2341 Rocket - Pass Details

Date: 28 April 2021
Orbit: 969 x 1003 km, 82.9° (Epoch: 11 May)

Event Time Altitude Azimuth Distance (km) Brightness Sun altitude
Rises 01:47:01 0° 332° (NNW) 3,728 7.4 -24.7°
Reaches altitude 10° 01:51:32 10° 302° (WNW) 2,778 6.3 -24.3°
Enters shadow 01:53:26 12° 285° (WNW) 2,656 6.1 -24.1°
